Year,Month,Day,Hour,Minute,Value (Times are PST for temperature in C)
2009,06,04,00,00,16.80
2009,06,04,00,01,16.80
2009,06,04,00,02,16.80
2009,06,04,00,03,16.80
2009,06,04,00,04,16.70
2009,06,04,00,05,16.70
2009,06,04,00,06,16.70
2009,06,04,00,07,16.70
2009,06,04,00,08,16.70
2009,06,04,00,09,16.70
2009,06,04,00,10,16.70
2009,06,04,00,11,16.70
2009,06,04,00,12,16.60
2009,06,04,00,18,16.40
2009,06,04,00,19,16.40
2009,06,04,00,20,16.40
2009,06,04,00,21,16.40
2009,06,04,00,22,16.40
2009,06,04,00,23,16.40
2009,06,04,00,24,16.40
2009,06,04,00,25,16.40
2009,06,04,00,26,16.40
2009,06,04,00,27,16.40
2009,06,04,00,28,16.40
2009,06,04,00,29,16.40
2009,06,04,00,30,16.40
2009,06,04,00,31,16.40
2009,06,04,00,32,16.40
2009,06,04,00,33,16.40
2009,06,04,00,34,16.40
2009,06,04,00,35,16.40
2009,06,04,00,36,16.40
2009,06,04,00,37,16.40
2009,06,04,00,38,16.30
2009,06,04,00,39,16.40
2009,06,04,00,40,16.30
2009,06,04,00,41,16.30
2009,06,04,00,42,16.30
2009,06,04,00,43,16.30
2009,06,04,00,44,16.30
2009,06,04,00,45,16.20
2009,06,04,00,46,16.20
2009,06,04,00,47,16.20
2009,06,04,00,48,16.20
2009,06,04,00,49,16.20
2009,06,04,00,50,16.20
2009,06,04,00,51,16.20
2009,06,04,00,52,16.20
2009,06,04,00,53,16.20
2009,06,04,00,54,16.10
2009,06,04,00,55,16.10
2009,06,04,00,56,16.10
2009,06,04,00,57,16.10
2009,06,04,00,58,16.10
2009,06,04,00,59,16.10
2009,06,04,01,00,16.10
2009,06,04,01,01,16.00
2009,06,04,01,02,16.00
2009,06,04,01,03,16.00
2009,06,04,01,04,15.90
2009,06,04,01,05,15.90
2009,06,04,01,06,15.90
2009,06,04,01,07,15.90
2009,06,04,01,08,15.80
2009,06,04,01,09,15.80
2009,06,04,01,10,15.80
2009,06,04,01,11,15.80
2009,06,04,01,12,15.80
2009,06,04,01,13,15.80
2009,06,04,01,14,15.80
2009,06,04,01,15,15.70
2009,06,04,01,16,15.70
2009,06,04,01,17,15.70
2009,06,04,01,18,15.70
2009,06,04,01,19,15.70
2009,06,04,01,20,15.70
2009,06,04,01,21,15.70
2009,06,04,01,22,15.70
2009,06,04,01,23,15.70
2009,06,04,01,24,15.70
2009,06,04,01,25,15.70
2009,06,04,01,26,15.70
2009,06,04,01,27,15.70
2009,06,04,01,28,15.60
2009,06,04,01,29,15.60
2009,06,04,01,30,15.60
2009,06,04,01,31,15.60
2009,06,04,01,32,15.60
2009,06,04,01,33,15.60
2009,06,04,01,34,15.60
2009,06,04,01,35,15.60
2009,06,04,01,36,15.50
2009,06,04,01,37,15.50
2009,06,04,01,38,15.50
2009,06,04,01,39,15.40
2009,06,04,01,40,15.40
2009,06,04,01,41,15.40
2009,06,04,01,42,15.40
2009,06,04,01,43,15.40
2009,06,04,01,44,15.40
2009,06,04,01,45,15.40
2009,06,04,01,46,15.30
2009,06,04,01,47,15.30
2009,06,04,01,48,15.30
2009,06,04,01,49,15.30
2009,06,04,01,50,15.30
2009,06,04,01,51,15.30
2009,06,04,01,52,15.30
2009,06,04,01,53,15.20
2009,06,04,01,54,15.20
2009,06,04,01,55,15.20
2009,06,04,01,56,15.20
2009,06,04,01,57,15.20
2009,06,04,01,58,15.20
2009,06,04,01,59,15.20
2009,06,04,02,00,15.20
2009,06,04,02,01,15.20
2009,06,04,02,02,15.10
2009,06,04,02,03,15.10
2009,06,04,02,04,15.10
2009,06,04,02,05,15.00
2009,06,04,02,06,15.00
2009,06,04,02,07,15.00
2009,06,04,02,08,15.00
2009,06,04,02,09,15.00
2009,06,04,02,10,15.00
2009,06,04,02,11,15.00
2009,06,04,02,12,15.00
2009,06,04,02,13,15.00
2009,06,04,02,14,15.00
2009,06,04,02,15,15.00
2009,06,04,02,16,15.00
2009,06,04,02,17,15.00
2009,06,04,02,18,15.00
2009,06,04,02,19,15.00
2009,06,04,02,20,15.00
2009,06,04,02,21,15.00
2009,06,04,02,22,15.00
2009,06,04,02,23,15.00
2009,06,04,02,24,15.00
2009,06,04,02,25,15.00
2009,06,04,02,26,14.90
2009,06,04,02,27,14.90
2009,06,04,02,28,14.90
2009,06,04,02,29,14.90
2009,06,04,02,30,15.00
2009,06,04,02,31,15.00
2009,06,04,02,32,15.00
2009,06,04,02,33,15.00
2009,06,04,02,34,15.00
2009,06,04,02,35,15.00
2009,06,04,02,36,15.00
2009,06,04,02,37,15.00
2009,06,04,02,38,14.90
2009,06,04,02,39,14.90
2009,06,04,02,40,14.90
2009,06,04,02,41,14.90
2009,06,04,02,42,14.80
2009,06,04,02,43,14.80
2009,06,04,02,44,14.80
2009,06,04,02,45,14.80
2009,06,04,02,46,14.80
2009,06,04,02,47,14.70
2009,06,04,02,48,14.70
2009,06,04,02,49,14.70
2009,06,04,02,50,14.60
2009,06,04,02,51,14.60
2009,06,04,02,52,14.60
2009,06,04,02,53,14.50
2009,06,04,02,54,14.40
2009,06,04,02,55,14.40
2009,06,04,02,56,14.30
2009,06,04,02,57,14.30
2009,06,04,02,58,14.30
2009,06,04,02,59,14.30
2009,06,04,03,00,14.20
2009,06,04,03,01,14.20
2009,06,04,03,02,14.20
2009,06,04,03,03,14.20
2009,06,04,03,04,14.20
2009,06,04,03,05,14.10
2009,06,04,03,06,14.10
2009,06,04,03,07,14.10
2009,06,04,03,08,14.00
2009,06,04,03,09,14.00
2009,06,04,03,10,14.00
2009,06,04,03,11,13.90
2009,06,04,03,12,13.90
2009,06,04,03,13,13.90
2009,06,04,03,14,13.90
2009,06,04,03,15,13.90
2009,06,04,03,16,13.80
2009,06,04,03,17,13.80
2009,06,04,03,18,13.80
2009,06,04,03,19,13.80
2009,06,04,03,20,13.80
2009,06,04,03,21,13.80
2009,06,04,03,22,13.80
2009,06,04,03,23,13.70
2009,06,04,03,24,13.70
2009,06,04,03,25,13.70
2009,06,04,03,26,13.70
2009,06,04,03,27,13.70
2009,06,04,03,28,13.70
2009,06,04,03,29,13.70
2009,06,04,03,30,13.60
2009,06,04,03,31,13.60
2009,06,04,03,32,13.60
2009,06,04,03,33,13.60
2009,06,04,03,34,13.60
2009,06,04,03,35,13.50
2009,06,04,03,36,13.50
2009,06,04,03,37,13.50
2009,06,04,03,38,13.40
2009,06,04,03,39,13.40
2009,06,04,03,40,13.40
2009,06,04,03,41,13.40
2009,06,04,03,42,13.30
2009,06,04,03,43,13.30
2009,06,04,03,44,13.30
2009,06,04,03,45,13.30
2009,06,04,03,46,13.30
2009,06,04,03,47,13.30
2009,06,04,03,48,13.30
2009,06,04,03,49,13.30
2009,06,04,03,50,13.30
2009,06,04,03,51,13.30
2009,06,04,03,52,13.30
2009,06,04,03,53,13.20
2009,06,04,03,54,13.20
2009,06,04,03,55,13.20
2009,06,04,03,56,13.20
2009,06,04,03,57,13.20
2009,06,04,03,58,13.20
2009,06,04,03,59,13.20
2009,06,04,04,00,13.20
2009,06,04,04,01,13.20
2009,06,04,04,02,13.10
2009,06,04,04,03,13.10
2009,06,04,04,04,13.10
2009,06,04,04,05,13.10
2009,06,04,04,06,13.10
2009,06,04,04,07,13.10
2009,06,04,04,08,13.10
2009,06,04,04,09,13.10
2009,06,04,04,10,13.00
2009,06,04,04,11,13.00
2009,06,04,04,12,13.00
2009,06,04,04,13,13.00
2009,06,04,04,14,13.00
2009,06,04,04,15,13.00
2009,06,04,04,16,13.00
2009,06,04,04,17,13.00
2009,06,04,04,18,13.00
2009,06,04,04,19,13.00
2009,06,04,04,20,13.00
2009,06,04,04,21,13.00
2009,06,04,04,22,12.90
2009,06,04,04,23,12.90
2009,06,04,04,24,12.90
2009,06,04,04,25,12.90
2009,06,04,04,26,12.90
2009,06,04,04,27,12.90
2009,06,04,04,28,12.90
2009,06,04,04,29,12.90
2009,06,04,04,30,12.90
2009,06,04,04,31,12.90
2009,06,04,04,32,12.80
2009,06,04,04,33,12.80
2009,06,04,04,34,12.80
2009,06,04,04,35,12.80
2009,06,04,04,36,12.80
2009,06,04,04,37,12.90
2009,06,04,04,38,12.90
2009,06,04,04,39,12.90
2009,06,04,04,40,13.00
2009,06,04,04,41,13.00
2009,06,04,04,42,13.00
2009,06,04,04,43,13.00
2009,06,04,04,44,13.00
2009,06,04,04,45,13.00
2009,06,04,04,46,13.10
2009,06,04,04,47,13.10
2009,06,04,04,48,13.10
2009,06,04,04,49,13.10
2009,06,04,04,50,13.20
2009,06,04,04,51,13.20
2009,06,04,04,52,13.30
2009,06,04,04,53,13.30
2009,06,04,04,54,13.30
2009,06,04,04,55,13.30
2009,06,04,04,56,13.40
2009,06,04,04,57,13.40
2009,06,04,04,58,13.40
2009,06,04,04,59,13.40
2009,06,04,05,00,13.40
2009,06,04,05,01,13.40
2009,06,04,05,02,13.30
2009,06,04,05,03,13.30
2009,06,04,05,04,13.30
2009,06,04,05,05,13.30
2009,06,04,05,06,13.30
2009,06,04,05,07,13.20
2009,06,04,05,08,13.20
2009,06,04,05,09,13.10
2009,06,04,05,10,13.00
2009,06,04,05,11,12.90
2009,06,04,05,12,12.80
2009,06,04,05,13,12.70
2009,06,04,05,14,12.60
2009,06,04,05,15,12.60
2009,06,04,05,16,12.60
2009,06,04,05,17,12.60
2009,06,04,05,18,12.60
2009,06,04,05,19,12.60
2009,06,04,05,20,12.60
2009,06,04,05,21,12.60
2009,06,04,05,22,12.60
2009,06,04,05,23,12.60
2009,06,04,05,24,12.60
2009,06,04,05,25,12.60
2009,06,04,05,26,12.60
2009,06,04,05,27,12.60
2009,06,04,05,28,12.60
2009,06,04,05,29,12.60
2009,06,04,05,30,12.60
2009,06,04,05,31,12.60
2009,06,04,05,32,12.60
2009,06,04,05,33,12.60
2009,06,04,05,34,12.60
2009,06,04,05,35,12.50
2009,06,04,05,36,12.50
2009,06,04,05,37,12.50
2009,06,04,05,38,12.60
2009,06,04,05,39,12.60
2009,06,04,05,40,12.60
2009,06,04,05,41,12.60
2009,06,04,05,42,12.60
2009,06,04,05,43,12.60
2009,06,04,05,44,12.60
2009,06,04,05,45,12.60
2009,06,04,05,46,12.60
2009,06,04,05,47,12.60
2009,06,04,05,48,12.60
2009,06,04,05,49,12.60
2009,06,04,05,50,12.60
2009,06,04,05,51,12.70
2009,06,04,05,52,12.70
2009,06,04,05,53,12.70
2009,06,04,05,54,12.70
2009,06,04,05,55,12.80
2009,06,04,05,56,12.80
2009,06,04,05,57,12.80
2009,06,04,05,58,12.80
2009,06,04,05,59,12.80
2009,06,04,06,00,12.80
2009,06,04,06,01,12.80
2009,06,04,06,02,12.90
2009,06,04,06,03,12.90
2009,06,04,06,04,12.90
2009,06,04,06,05,13.00
2009,06,04,06,06,13.00
2009,06,04,06,07,13.00
2009,06,04,06,08,13.10
2009,06,04,06,09,13.10
2009,06,04,06,10,13.10
2009,06,04,06,11,13.10
2009,06,04,06,12,13.10
2009,06,04,06,13,13.10
2009,06,04,06,14,13.10
2009,06,04,06,15,13.10
2009,06,04,06,16,13.10
2009,06,04,06,17,13.10
2009,06,04,06,18,13.10
2009,06,04,06,19,13.10
2009,06,04,06,20,13.10
2009,06,04,06,21,13.10
2009,06,04,06,22,13.10
2009,06,04,06,23,13.10
2009,06,04,06,24,13.20
2009,06,04,06,25,13.20
2009,06,04,06,26,13.20
2009,06,04,06,27,13.20
2009,06,04,06,28,13.20
2009,06,04,06,29,13.20
2009,06,04,06,30,13.20
2009,06,04,06,31,13.20
2009,06,04,06,32,13.30
2009,06,04,06,33,13.30
2009,06,04,06,34,13.40
2009,06,04,06,35,13.40
2009,06,04,06,36,13.40
2009,06,04,06,37,13.40
2009,06,04,06,38,13.50
2009,06,04,06,39,13.50
2009,06,04,06,40,13.50
2009,06,04,06,41,13.50
2009,06,04,06,42,13.50
2009,06,04,06,43,13.50
2009,06,04,06,44,13.60
2009,06,04,06,45,13.60
2009,06,04,06,46,13.60
2009,06,04,06,47,13.60
2009,06,04,06,48,13.70
2009,06,04,06,49,13.70
2009,06,04,06,50,13.70
2009,06,04,06,51,13.80
2009,06,04,06,52,13.80
2009,06,04,06,53,13.90
2009,06,04,06,54,14.00
2009,06,04,06,55,14.00
2009,06,04,06,56,14.10
2009,06,04,06,57,14.20
2009,06,04,06,58,14.30
2009,06,04,06,59,14.40
2009,06,04,07,00,14.50
2009,06,04,07,01,14.50
2009,06,04,07,02,14.60
2009,06,04,07,03,14.70
2009,06,04,07,04,14.80
2009,06,04,07,05,14.90
2009,06,04,07,06,15.00
2009,06,04,07,07,15.00
2009,06,04,07,08,15.00
2009,06,04,07,09,15.10
2009,06,04,07,10,15.20
2009,06,04,07,11,15.20
2009,06,04,07,12,15.30
2009,06,04,07,13,15.40
2009,06,04,07,14,15.50
2009,06,04,07,15,15.60
2009,06,04,07,16,15.70
2009,06,04,07,17,15.80
2009,06,04,07,18,15.90
2009,06,04,07,19,16.00
2009,06,04,07,20,16.00
2009,06,04,07,21,16.10
2009,06,04,07,22,16.20
2009,06,04,07,23,16.30
2009,06,04,07,24,16.40
2009,06,04,07,25,16.40
2009,06,04,07,26,16.50
2009,06,04,07,27,16.60
2009,06,04,07,28,16.70
2009,06,04,07,29,16.70
2009,06,04,07,30,16.80
2009,06,04,07,31,16.80
2009,06,04,07,32,16.90
2009,06,04,07,33,16.90
2009,06,04,07,34,17.00
2009,06,04,07,35,17.00
2009,06,04,07,36,17.10
2009,06,04,07,37,17.20
2009,06,04,07,38,17.30
2009,06,04,07,39,17.40
2009,06,04,07,40,17.60
2009,06,04,07,41,17.70
2009,06,04,07,42,17.80
2009,06,04,07,43,17.80
2009,06,04,07,44,17.90
2009,06,04,07,45,18.00
2009,06,04,07,46,18.10
2009,06,04,07,47,18.20
2009,06,04,07,48,18.30
2009,06,04,07,49,18.40
2009,06,04,07,50,18.50
2009,06,04,07,51,18.50
2009,06,04,07,52,18.60
2009,06,04,07,53,18.70
2009,06,04,07,54,18.80
2009,06,04,07,55,18.90
2009,06,04,07,56,19.00
2009,06,04,07,57,19.10
2009,06,04,07,58,19.20
2009,06,04,07,59,19.30
2009,06,04,08,00,19.40
2009,06,04,08,01,19.50
2009,06,04,08,02,19.60
2009,06,04,08,03,19.70
2009,06,04,08,04,19.80
2009,06,04,08,05,19.90
2009,06,04,08,06,20.00
2009,06,04,08,07,20.10
2009,06,04,08,08,20.20
2009,06,04,08,09,20.30
2009,06,04,08,10,20.40
2009,06,04,08,11,20.50
2009,06,04,08,12,20.70
2009,06,04,08,13,20.80
2009,06,04,08,14,20.90
2009,06,04,08,15,21.00
2009,06,04,08,16,21.10
2009,06,04,08,17,21.20
2009,06,04,08,18,21.30
2009,06,04,08,19,21.40
2009,06,04,08,20,21.50
2009,06,04,08,21,21.60
2009,06,04,08,22,21.60
2009,06,04,08,23,21.70
2009,06,04,08,24,21.60
2009,06,04,08,25,21.60
2009,06,04,08,26,21.60
2009,06,04,08,27,21.60
2009,06,04,08,28,21.70
2009,06,04,08,29,21.80
2009,06,04,08,30,21.90
2009,06,04,08,31,22.00
2009,06,04,08,32,22.20
2009,06,04,08,33,22.40
2009,06,04,08,34,22.60
2009,06,04,08,35,22.80
2009,06,04,08,36,23.00
2009,06,04,08,37,23.10
2009,06,04,08,38,23.30
2009,06,04,08,39,23.40
2009,06,04,08,40,23.60
2009,06,04,08,41,23.70
2009,06,04,08,42,23.80
2009,06,04,08,43,24.00
2009,06,04,08,44,24.10
2009,06,04,08,45,24.20
2009,06,04,08,46,24.20
2009,06,04,08,47,24.20
2009,06,04,08,48,24.30
2009,06,04,08,49,24.40
2009,06,04,08,50,24.50
2009,06,04,08,51,24.50
2009,06,04,08,52,24.60
2009,06,04,08,53,24.60
2009,06,04,08,54,24.60
2009,06,04,08,55,24.60
2009,06,04,08,56,24.70
2009,06,04,08,57,24.80
2009,06,04,08,58,24.80
2009,06,04,08,59,24.90
2009,06,04,09,00,25.00
2009,06,04,09,01,25.10
2009,06,04,09,02,25.20
2009,06,04,09,03,25.30
2009,06,04,09,04,25.40
2009,06,04,09,05,25.50
2009,06,04,09,06,25.60
2009,06,04,09,07,25.60
2009,06,04,09,08,25.60
2009,06,04,09,09,25.70
2009,06,04,09,10,25.70
2009,06,04,09,11,25.70
2009,06,04,09,12,25.80
2009,06,04,09,13,25.80
2009,06,04,09,14,25.90
2009,06,04,09,15,26.00
2009,06,04,09,16,26.10
2009,06,04,09,17,26.20
2009,06,04,09,18,26.30
2009,06,04,09,19,26.30
2009,06,04,09,20,26.30
2009,06,04,09,21,26.30
2009,06,04,09,22,26.30
2009,06,04,09,23,26.20
2009,06,04,09,24,26.10
2009,06,04,09,25,26.10
2009,06,04,09,26,26.10
2009,06,04,09,27,26.10
2009,06,04,09,28,26.10
2009,06,04,09,29,26.10
2009,06,04,09,30,26.20
2009,06,04,09,31,26.20
2009,06,04,09,32,26.20
2009,06,04,09,33,26.30
2009,06,04,09,34,26.40
2009,06,04,09,35,26.40
2009,06,04,09,36,26.40
2009,06,04,09,37,26.40
2009,06,04,09,38,26.50
2009,06,04,09,39,26.50
2009,06,04,09,40,26.60
2009,06,04,09,41,26.60
2009,06,04,09,42,26.70
2009,06,04,09,43,26.60
2009,06,04,09,44,26.60
2009,06,04,09,45,26.60
2009,06,04,09,46,26.60
2009,06,04,09,47,26.60
2009,06,04,09,48,26.60
2009,06,04,09,49,26.60
2009,06,04,09,50,26.60
2009,06,04,09,51,26.60
2009,06,04,09,52,26.60
2009,06,04,09,53,26.70
2009,06,04,09,54,26.80
2009,06,04,09,55,26.90
2009,06,04,09,56,27.00
2009,06,04,09,57,27.10
2009,06,04,09,58,27.20
2009,06,04,09,59,27.20
2009,06,04,10,00,27.20
2009,06,04,10,01,27.20
2009,06,04,10,02,27.10
2009,06,04,10,03,27.10
2009,06,04,10,04,27.20
2009,06,04,10,05,27.20
2009,06,04,10,06,27.10
2009,06,04,10,07,27.00
2009,06,04,10,08,26.90
2009,06,04,10,09,26.90
2009,06,04,10,10,26.80
2009,06,04,10,11,26.80
2009,06,04,10,12,26.90
2009,06,04,10,13,26.90
2009,06,04,10,14,26.90
2009,06,04,10,15,26.90
2009,06,04,10,16,26.90
2009,06,04,10,17,26.90
2009,06,04,10,18,26.90
2009,06,04,10,19,26.90
2009,06,04,10,20,26.90
2009,06,04,10,21,26.80
2009,06,04,10,22,26.80
2009,06,04,10,23,26.80
2009,06,04,10,24,26.80
2009,06,04,10,25,26.80
2009,06,04,10,26,26.80
2009,06,04,10,27,26.90
2009,06,04,10,28,26.90
2009,06,04,10,29,26.90
2009,06,04,10,30,26.80
2009,06,04,10,31,26.70
2009,06,04,10,32,26.70
2009,06,04,10,33,26.70
2009,06,04,10,34,26.60
2009,06,04,10,35,26.60
2009,06,04,10,36,26.50
2009,06,04,10,37,26.50
2009,06,04,10,38,26.40
2009,06,04,10,39,26.40
2009,06,04,10,40,26.40
2009,06,04,10,41,26.50
2009,06,04,10,42,26.60
2009,06,04,10,43,26.70
2009,06,04,10,44,26.80
2009,06,04,10,45,26.90
2009,06,04,10,46,27.00
2009,06,04,10,47,27.10
2009,06,04,10,48,27.20
2009,06,04,10,49,27.30
2009,06,04,10,50,27.30
2009,06,04,10,51,27.40
2009,06,04,10,52,27.40
2009,06,04,10,53,27.30
2009,06,04,10,54,27.00
2009,06,04,10,55,26.50
2009,06,04,10,56,26.10
2009,06,04,10,57,25.80
2009,06,04,10,58,25.60
2009,06,04,10,59,25.40
2009,06,04,11,00,25.20
2009,06,04,11,01,25.10
2009,06,04,11,02,25.00
2009,06,04,11,03,24.90
2009,06,04,11,04,24.80
2009,06,04,11,05,24.80
2009,06,04,11,06,24.90
2009,06,04,11,07,24.90
2009,06,04,11,08,24.90
2009,06,04,11,09,24.90
2009,06,04,11,10,24.90
2009,06,04,11,11,24.90
2009,06,04,11,12,24.90
2009,06,04,11,13,25.00
2009,06,04,11,14,25.10
2009,06,04,11,15,25.10
2009,06,04,11,16,24.90
2009,06,04,11,17,24.80
2009,06,04,11,18,24.70
2009,06,04,11,19,24.70
2009,06,04,11,20,24.80
2009,06,04,11,21,24.90
2009,06,04,11,22,24.80
2009,06,04,11,23,24.80
2009,06,04,11,24,24.80
2009,06,04,11,25,24.80
2009,06,04,11,26,25.00
2009,06,04,11,27,25.10
2009,06,04,11,28,25.20
2009,06,04,11,29,25.30
2009,06,04,11,30,25.20
2009,06,04,11,31,25.30
2009,06,04,11,32,25.40
2009,06,04,11,33,25.40
2009,06,04,11,34,25.40
2009,06,04,11,35,25.40
2009,06,04,11,36,25.30
2009,06,04,11,37,25.10
2009,06,04,11,38,24.90
2009,06,04,11,39,24.80
2009,06,04,11,40,24.70
2009,06,04,11,41,24.70
2009,06,04,11,42,24.80
2009,06,04,11,43,24.80
2009,06,04,11,44,24.80
2009,06,04,11,45,24.70
2009,06,04,11,46,24.70
2009,06,04,11,47,24.60
2009,06,04,11,48,24.60
2009,06,04,11,49,24.50
2009,06,04,11,50,24.50
2009,06,04,11,51,24.60
2009,06,04,11,52,24.70
2009,06,04,11,53,24.80
2009,06,04,11,54,24.70
2009,06,04,11,55,24.70
2009,06,04,11,56,24.60
2009,06,04,11,57,24.60
2009,06,04,11,58,24.60
2009,06,04,11,59,24.70
2009,06,04,12,00,24.70
2009,06,04,12,01,24.80
2009,06,04,12,02,24.90
2009,06,04,12,03,25.00
2009,06,04,12,04,25.10
2009,06,04,12,05,25.30
2009,06,04,12,06,25.20
2009,06,04,12,07,25.10
2009,06,04,12,08,25.00
2009,06,04,12,09,24.90
2009,06,04,12,10,24.90
2009,06,04,12,11,24.80
2009,06,04,12,12,24.70
2009,06,04,12,13,24.70
2009,06,04,12,14,24.70
2009,06,04,12,15,24.90
2009,06,04,12,16,25.10
2009,06,04,12,17,25.30
2009,06,04,12,18,25.40
2009,06,04,12,19,25.30
2009,06,04,12,20,25.30
2009,06,04,12,21,25.30
2009,06,04,12,22,25.20
2009,06,04,12,23,25.20
2009,06,04,12,24,25.20
2009,06,04,12,25,25.30
2009,06,04,12,26,25.40
2009,06,04,12,27,25.60
2009,06,04,12,28,25.80
2009,06,04,12,29,25.90
2009,06,04,12,30,26.00
2009,06,04,12,31,26.10
2009,06,04,12,32,26.30
2009,06,04,12,33,26.60
2009,06,04,12,34,26.80
2009,06,04,12,35,27.00
2009,06,04,12,36,27.10
2009,06,04,12,37,27.20
2009,06,04,12,38,27.20
2009,06,04,12,39,27.30
2009,06,04,12,40,27.40
2009,06,04,12,41,27.40
2009,06,04,12,42,27.40
2009,06,04,12,43,27.40
2009,06,04,12,44,27.40
2009,06,04,12,45,27.40
2009,06,04,12,46,27.40
2009,06,04,12,47,27.50
2009,06,04,12,48,27.50
2009,06,04,12,49,27.50
2009,06,04,12,50,27.60
2009,06,04,12,51,27.70
2009,06,04,12,52,27.80
2009,06,04,12,53,27.90
2009,06,04,12,54,28.10
2009,06,04,12,55,28.20
2009,06,04,12,56,28.30
2009,06,04,12,57,28.30
2009,06,04,12,58,28.30
2009,06,04,12,59,28.20
2009,06,04,13,00,28.00
2009,06,04,13,01,28.00
2009,06,04,13,02,27.90
2009,06,04,13,03,28.00
2009,06,04,13,04,28.10
2009,06,04,13,05,28.20
2009,06,04,13,06,28.20
2009,06,04,13,07,28.30
2009,06,04,13,08,28.30
2009,06,04,13,09,28.30
2009,06,04,13,10,28.30
2009,06,04,13,11,28.30
2009,06,04,13,12,28.30
2009,06,04,13,13,28.20
2009,06,04,13,14,28.10
2009,06,04,13,15,28.10
2009,06,04,13,16,28.10
2009,06,04,13,17,28.20
2009,06,04,13,18,28.20
2009,06,04,13,19,28.20
2009,06,04,13,20,28.30
2009,06,04,13,21,28.30
2009,06,04,13,22,28.30
2009,06,04,13,23,28.20
2009,06,04,13,24,28.20
2009,06,04,13,25,28.20
2009,06,04,13,26,28.20
2009,06,04,13,27,28.20
2009,06,04,13,28,28.20
2009,06,04,13,29,28.20
2009,06,04,13,30,28.30
2009,06,04,13,31,28.40
2009,06,04,13,32,28.40
2009,06,04,13,33,28.40
2009,06,04,13,34,28.40
2009,06,04,13,35,28.30
2009,06,04,13,36,28.40
2009,06,04,13,37,28.40
2009,06,04,13,38,28.50
2009,06,04,13,39,28.60
2009,06,04,13,40,28.70
2009,06,04,13,41,28.80
2009,06,04,13,42,28.80
2009,06,04,13,43,28.80
2009,06,04,13,44,28.80
2009,06,04,13,45,28.90
2009,06,04,13,46,29.00
2009,06,04,13,47,29.10
2009,06,04,13,48,29.30
2009,06,04,13,49,29.30
2009,06,04,13,50,29.40
2009,06,04,13,51,29.40
2009,06,04,13,52,29.40
2009,06,04,13,53,29.40
2009,06,04,13,54,29.40
2009,06,04,13,55,29.40
2009,06,04,13,56,29.40
2009,06,04,13,57,29.50
2009,06,04,13,58,29.60
2009,06,04,13,59,29.60
2009,06,04,14,00,29.60
2009,06,04,14,01,29.60
2009,06,04,14,02,29.60
2009,06,04,14,03,29.60
2009,06,04,14,04,29.70
2009,06,04,14,05,29.80
2009,06,04,14,06,29.80
2009,06,04,14,07,29.90
2009,06,04,14,08,29.90
2009,06,04,14,09,29.90
2009,06,04,14,10,29.80
2009,06,04,14,11,29.80
2009,06,04,14,12,29.70
2009,06,04,14,13,29.60
2009,06,04,14,14,29.50
2009,06,04,14,15,29.60
2009,06,04,14,16,29.60
2009,06,04,14,17,29.60
2009,06,04,14,18,29.60
2009,06,04,14,19,29.70
2009,06,04,14,20,29.70
2009,06,04,14,21,29.70
2009,06,04,14,22,29.70
2009,06,04,14,23,29.70
2009,06,04,14,24,29.80
2009,06,04,14,25,29.80
2009,06,04,14,26,29.80
2009,06,04,14,27,29.80
2009,06,04,14,28,29.90
2009,06,04,14,29,30.00
2009,06,04,14,30,29.90
2009,06,04,14,31,30.00
2009,06,04,14,32,30.00
2009,06,04,14,33,30.00
2009,06,04,14,34,30.10
2009,06,04,14,35,30.10
2009,06,04,14,36,30.10
2009,06,04,14,37,30.10
2009,06,04,14,38,30.10
2009,06,04,14,39,30.10
2009,06,04,14,40,30.10
2009,06,04,14,41,30.10
2009,06,04,14,42,30.20
2009,06,04,14,43,30.30
2009,06,04,14,44,30.30
2009,06,04,14,45,30.30
2009,06,04,14,46,30.30
2009,06,04,14,47,30.30
2009,06,04,14,48,30.30
2009,06,04,14,49,30.40
2009,06,04,14,50,30.50
2009,06,04,14,51,30.50
2009,06,04,14,52,30.50
2009,06,04,14,53,30.60
2009,06,04,14,54,30.60
2009,06,04,14,55,30.60
2009,06,04,14,56,30.60
2009,06,04,14,57,30.50
2009,06,04,14,58,30.40
2009,06,04,14,59,30.30
2009,06,04,15,00,30.40
2009,06,04,15,01,30.30
2009,06,04,15,02,30.30
2009,06,04,15,03,30.20
2009,06,04,15,04,30.20
2009,06,04,15,05,30.20
2009,06,04,15,06,30.20
2009,06,04,15,07,30.20
2009,06,04,15,08,30.20
2009,06,04,15,09,30.20
2009,06,04,15,10,30.20
2009,06,04,15,11,30.20
2009,06,04,15,12,30.20
2009,06,04,15,13,30.30
2009,06,04,15,14,30.40
2009,06,04,15,15,30.50
2009,06,04,15,16,30.60
2009,06,04,15,17,30.60
2009,06,04,15,18,30.70
2009,06,04,15,19,30.70
2009,06,04,15,20,30.80
2009,06,04,15,21,30.90
2009,06,04,15,22,30.90
2009,06,04,15,23,31.00
2009,06,04,15,24,31.00
2009,06,04,15,25,31.10
2009,06,04,15,26,31.10
2009,06,04,15,27,31.10
2009,06,04,15,28,31.20
2009,06,04,15,29,31.20
2009,06,04,15,30,31.10
2009,06,04,15,31,31.10
2009,06,04,15,32,31.10
2009,06,04,15,33,31.10
2009,06,04,15,34,31.10
2009,06,04,15,35,31.10
2009,06,04,15,36,31.10
2009,06,04,15,37,31.00
2009,06,04,15,38,31.00
2009,06,04,15,39,31.00
2009,06,04,15,40,31.00
2009,06,04,15,41,31.10
2009,06,04,15,42,31.10
2009,06,04,15,43,31.10
2009,06,04,15,44,31.10
2009,06,04,15,45,31.10
2009,06,04,15,46,31.10
2009,06,04,15,47,31.10
2009,06,04,15,48,31.20
2009,06,04,15,49,31.20
2009,06,04,15,50,31.20
2009,06,04,15,51,31.30
2009,06,04,15,52,31.30
2009,06,04,15,53,31.30
2009,06,04,15,54,31.30
2009,06,04,15,55,31.30
2009,06,04,15,56,31.40
2009,06,04,15,57,31.40
2009,06,04,15,58,31.40
2009,06,04,15,59,31.30
2009,06,04,16,00,31.30
2009,06,04,16,01,31.30
2009,06,04,16,02,31.30
2009,06,04,16,03,31.30
2009,06,04,16,04,31.40
2009,06,04,16,05,31.40
2009,06,04,16,06,31.40
2009,06,04,16,07,31.30
2009,06,04,16,08,31.40
2009,06,04,16,09,31.50
2009,06,04,16,10,31.60
2009,06,04,16,11,31.60
2009,06,04,16,12,31.60
2009,06,04,16,13,31.50
2009,06,04,16,14,31.50
2009,06,04,16,15,31.50
2009,06,04,16,16,31.60
2009,06,04,16,17,31.60
2009,06,04,16,18,31.60
2009,06,04,16,19,31.70
2009,06,04,16,20,31.80
2009,06,04,16,21,31.80
2009,06,04,16,22,31.90
2009,06,04,16,23,32.00
2009,06,04,16,24,32.10
2009,06,04,16,25,32.10
2009,06,04,16,26,32.10
2009,06,04,16,27,32.00
2009,06,04,16,28,31.90
2009,06,04,16,29,31.80
2009,06,04,16,30,31.80
2009,06,04,16,31,31.80
2009,06,04,16,32,31.70
2009,06,04,16,33,31.70
2009,06,04,16,34,31.60
2009,06,04,16,35,31.60
2009,06,04,16,36,31.50
2009,06,04,16,37,31.40
2009,06,04,16,38,31.40
2009,06,04,16,39,31.30
2009,06,04,16,40,31.30
2009,06,04,16,41,31.30
2009,06,04,16,42,31.30
2009,06,04,16,43,31.40
2009,06,04,16,44,31.40
2009,06,04,16,45,31.40
2009,06,04,16,46,31.30
2009,06,04,16,47,31.30
2009,06,04,16,48,31.20
2009,06,04,16,49,31.20
2009,06,04,16,50,31.20
2009,06,04,16,51,31.30
2009,06,04,16,52,31.40
2009,06,04,16,53,31.30
2009,06,04,16,54,31.30
2009,06,04,16,55,31.20
2009,06,04,16,56,31.20
2009,06,04,16,57,31.10
2009,06,04,16,58,31.20
2009,06,04,16,59,31.20
2009,06,04,17,00,31.30
2009,06,04,17,01,31.30
2009,06,04,17,02,31.40
2009,06,04,17,03,31.40
2009,06,04,17,04,31.40
2009,06,04,17,05,31.40
2009,06,04,17,06,31.40
2009,06,04,17,07,31.40
2009,06,04,17,08,31.30
2009,06,04,17,09,31.40
2009,06,04,17,10,31.40
2009,06,04,17,11,31.40
2009,06,04,17,12,31.40
2009,06,04,17,13,31.40
2009,06,04,17,14,31.40
2009,06,04,17,15,31.50
2009,06,04,17,16,31.50
2009,06,04,17,17,31.60
2009,06,04,17,18,31.50
2009,06,04,17,19,31.30
2009,06,04,17,20,31.20
2009,06,04,17,21,31.20
2009,06,04,17,22,31.20
2009,06,04,17,23,31.20
2009,06,04,17,24,31.20